Date,TemperatureHighF,TemperatureAvgF,TemperatureLowF,DewpointHighF,DewpointAvgF,DewpointLowF,HumidityHigh,HumidityAvg,HumidityLow,PressureMaxIn,PressureMinIn,WindSpeedMaxMPH,WindSpeedAvgMPH,GustSpeedMaxMPH,PrecipitationSumIn
2013-1-1,36.3,31.6,22.5,25.8,4.4,-15.8,69,36,14,29.23,29.12,5,1,5,0.00
2013-1-2,27.9,20.6,15.6,-12.5,-17.0,-19.9,19,17,16,29.44,29.32,3,0,3,0.00
2013-1-3,36.9,22.7,8.6,1.4,-15.2,-25.2,44,18,14,29.88,29.38,9,2,9,0.00
2013-1-4,35.8,31.1,26.8,-7.6,-11.0,-13.4,16,15,14,30.06,29.56,13,4,13,0.00
2013-1-7,36.7,28.0,20.1,-2.5,-9.6,-13.4,36,19,14,31.01,31.01,2,0,3,0.00
2013-1-8,49.8,32.2,20.1,9.7,1.0,-8.9,52,29,13,31.01,31.01,7,1,7,0.00
2013-1-9,53.6,43.3,30.0,30.2,4.8,-8.7,54,22,13,31.01,31.01,13,3,13,0.04
2013-1-10,46.8,39.0,27.1,16.9,2.9,-4.5,41,23,14,31.01,31.01,6,1,6,0.04
2013-1-11,63.7,53.4,46.8,52.6,22.2,-0.2,82,35,11,31.01,30.89,10,2,10,0.47
2013-1-12,66.2,60.4,50.0,58.6,38.1,12.1,80,48,13,31.01,30.50,9,1,10,0.12
2013-1-13,66.0,55.2,35.4,56.5,43.0,4.7,84,67,15,31.01,30.50,9,2,10,0.67
2013-1-14,38.5,27.3,23.4,33.2,-4.1,-14.7,81,26,15,31.01,31.01,8,2,8,0.67
2013-1-15,33.4,28.5,21.2,5.2,-8.3,-13.2,43,20,15,31.01,31.01,10,2,10,0.00
2013-1-16,37.4,32.9,31.1,4.3,-5.8,-10.9,31,18,14,31.01,31.01,8,2,8,0.00
2013-1-17,44.1,33.0,25.7,-0.4,-8.5,-14.3,20,16,13,31.01,31.01,7,1,7,0.00
2013-1-18,34.7,21.1,15.4,3.5,-11.8,-19.9,44,24,15,31.01,31.01,6,0,6,0.00
2013-1-21,25.3,17.6,9.3,-7.7,-18.7,-24.7,25,18,16,31.01,31.01,15,5,15,0.00
2013-1-22,19.4,11.9,5.2,-17.2,-22.6,-28.1,19,19,18,31.01,31.01,9,4,9,0.00
2013-1-23,22.5,17.4,11.1,-15.8,-19.0,-23.1,19,18,17,31.01,31.01,8,2,8,0.00
2013-1-24,24.8,18.5,11.3,-13.8,-18.2,-22.9,19,18,17,31.01,31.01,7,2,7,0.00
2013-1-25,28.6,23.0,18.7,-10.1,-15.1,-18.1,25,17,16,31.01,31.01,6,2,6,0.00
2013-1-26,25.9,22.5,20.8,2.4,-9.9,-16.6,43,24,17,31.01,31.01,6,3,6,0.00
2013-1-28,51.8,49.1,45.0,40.0,32.1,25.4,64,52,42,31.01,31.01,10,3,10,0.24
2013-1-29,66.6,63.7,62.4,26.2,14.1,6.7,24,15,10,31.01,31.01,13,3,13,0.24
2013-1-30,68.0,54.3,32.7,52.2,19.4,-9.8,84,32,10,31.01,31.01,18,4,18,0.47
2013-1-31,32.7,26.7,16.7,6.6,-11.4,-18.8,46,19,15,31.01,31.01,20,6,20,0.24
2013-2-1,19.0,12.4,5.5,-17.5,-22.2,-27.8,19,19,18,31.01,31.01,11,5,11,0.24
2013-2-4,34.9,34.2,32.9,13.6,11.9,7.6,41,39,34,31.01,31.01,4,0,4,0.00
2013-2-5,38.5,34.3,27.9,16.9,-1.3,-11.3,47,24,14,31.01,31.01,5,1,6,0.08
2013-2-6,38.5,33.2,25.5,-5.1,-8.4,-14.4,19,16,14,31.01,31.01,6,1,6,0.00
2013-2-7,57.0,42.3,28.4,5.2,-2.9,-12.6,18,15,12,31.01,31.01,5,1,5,0.00
2013-2-8,51.6,37.4,29.5,31.4,-0.2,-12.5,66,22,14,31.01,31.01,8,3,8,0.08
2013-2-9,41.7,29.3,16.5,-1.2,-11.6,-18.8,32,16,13,31.01,31.01,6,1,6,0.00
2013-2-10,54.9,42.6,27.7,4.8,-3.1,-13.2,16,14,13,31.01,31.01,8,2,8,0.00
2013-2-11,52.0,47.0,36.9,29.9,5.8,-7.9,43,20,13,31.01,31.01,15,5,15,0.00
2013-2-12,50.9,41.2,31.6,3.4,-4.0,-10.7,15,14,13,31.01,31.01,8,2,8,0.00
2013-2-13,36.7,31.2,28.6,11.4,-1.9,-13.2,46,25,15,31.01,31.01,6,1,6,0.00
2013-2-14,52.5,41.3,29.5,20.7,3.8,-8.3,52,24,13,31.01,31.01,12,3,12,0.04
2013-2-15,42.4,32.1,23.0,8.0,-3.9,-12.2,33,22,13,31.01,31.01,11,2,11,0.00
2013-2-16,30.7,21.6,13.5,0.1,-12.6,-19.9,35,22,15,31.01,31.01,9,2,9,0.00
2013-2-17,33.6,21.2,10.8,-9.1,-16.6,-23.4,26,17,15,31.01,31.01,8,1,8,0.00
2013-2-18,60.3,40.9,20.5,8.0,-4.2,-17.4,23,15,12,31.01,31.01,11,3,11,0.12
2013-2-19,44.4,32.3,23.5,23.8,-3.7,-14.9,64,22,15,31.01,31.01,14,6,14,0.12
2013-2-20,29.7,22.8,18.7,-12.1,-15.6,-18.1,18,17,15,31.01,31.01,14,4,14,0.00
2013-2-21,32.2,25.8,20.8,-10.3,-14.1,-17.1,17,16,15,31.01,31.01,12,2,12,0.00
2013-2-22,44.1,35.5,28.8,37.3,12.0,-12.9,83,41,15,31.01,31.01,9,2,9,0.04
2013-2-23,44.4,36.0,30.6,17.4,-2.1,-11.9,47,21,13,31.01,31.01,8,2,8,0.00
2013-2-24,41.9,31.7,25.3,-1.4,-10.1,-14.6,29,16,13,31.01,31.01,8,2,8,0.00
2013-2-25,46.9,33.2,18.7,3.6,-8.1,-18.0,32,16,13,31.01,31.01,13,2,13,0.00
2013-2-26,48.7,40.9,33.3,40.3,13.4,-8.9,75,37,14,31.01,31.01,9,3,9,0.59
2013-2-27,43.5,37.4,33.4,32.2,13.3,-8.0,67,39,14,31.01,31.01,11,4,11,0.08
2013-2-28,33.4,32.9,31.8,8.1,2.2,-6.1,34,27,18,31.01,31.01,8,1,8,0.00
2013-3-1,38.1,33.8,29.7,13.4,-7.1,-12.3,40,17,14,31.01,31.01,9,2,9,0.00
2013-3-2,30.0,27.9,26.8,-12.1,-12.8,-13.5,16,16,15,31.01,31.01,7,1,232,0.00
2013-3-3,34.7,28.6,21.9,-8.2,-12.4,-16.4,17,16,15,31.01,31.01,8,2,8,0.00
2013-3-4,45.9,31.2,13.3,4.9,-8.8,-19.3,42,18,12,31.01,31.01,7,1,7,0.00
2013-3-5,38.5,35.6,33.4,31.2,5.4,-8.4,85,33,14,31.01,31.01,197,2,197,0.28
2013-3-6,35.2,32.5,30.2,31.2,17.9,8.9,85,57,34,31.01,31.01,6,1,6,0.00
2013-3-7,43.3,34.5,30.9,16.4,4.3,-7.6,51,30,14,31.01,31.01,6,2,6,0.28
2013-3-8,43.5,33.1,21.2,10.9,-5.7,-12.8,43,20,13,31.01,31.01,8,1,8,0.00
2013-3-9,58.3,43.2,25.7,8.2,0.4,-13.2,41,18,12,31.01,31.01,6,1,6,0.00
2013-3-10,69.8,59.2,50.7,10.7,6.0,2.5,14,12,10,31.01,31.01,9,2,9,0.00
2013-3-11,58.8,48.8,37.4,43.3,21.8,-4.7,77,40,12,31.01,31.01,17,2,17,1.14
2013-3-12,45.1,37.8,33.3,13.5,-4.2,-9.2,42,16,13,31.01,31.01,11,4,11,0.00
2013-3-13,34.2,32.1,30.2,12.9,5.8,-3.2,41,33,20,31.01,31.01,6,3,6,0.00
2013-3-14,46.2,40.4,33.4,1.0,-5.5,-9.2,15,14,13,31.01,31.01,9,3,9,0.00
2013-3-15,56.1,41.8,27.0,16.2,0.9,-11.4,50,20,12,31.01,31.01,7,2,7,0.00
2013-3-16,60.4,46.7,35.8,44.6,14.1,-4.7,78,34,12,31.01,31.01,8,2,8,0.16
2013-3-17,37.6,35.2,33.3,4.2,-5.4,-8.9,27,17,14,31.01,31.01,10,4,10,0.00
2013-3-18,52.7,42.0,33.6,40.0,23.5,-5.5,84,51,16,31.01,31.01,13,3,13,1.02
2013-3-19,44.4,36.8,28.4,9.7,-5.7,-13.2,31,16,13,31.01,31.01,22,6,22,0.00
2013-3-20,38.8,31.1,22.8,-6.3,-11.0,-15.4,17,15,14,31.01,31.01,12,4,12,0.00
2013-3-21,35.6,28.1,21.2,-7.6,-12.6,-16.8,20,16,15,31.01,31.01,8,3,8,0.00
2013-3-22,46.6,32.1,17.4,1.1,-9.8,-18.8,20,16,12,31.01,31.01,6,1,6,171.42
2013-3-23,55.2,38.8,25.2,5.2,-5.8,-14.7,16,14,13,31.01,31.01,8,1,8,0.00
2013-3-24,36.7,34.4,33.1,17.3,1.0,-9.1,50,26,14,31.01,31.01,14,4,14,0.00
2013-3-25,35.2,33.6,32.0,21.6,12.7,4.5,64,43,27,31.01,31.01,6,1,6,0.04
2013-3-26,42.4,35.7,32.0,13.6,0.9,-10.3,45,26,13,31.01,31.01,8,2,8,0.39
2013-3-27,45.3,35.8,28.6,0.4,-7.6,-13.2,20,15,12,31.01,31.01,8,3,8,0.00
2013-3-28,55.2,37.1,21.9,5.2,-6.0,-15.4,26,15,13,31.01,31.01,8,1,8,0.00
2013-3-29,61.2,47.4,27.3,8.1,0.2,-13.2,35,14,11,31.01,31.01,8,1,8,0.00
2013-3-30,65.3,46.5,27.3,11.0,0.4,-10.6,31,15,10,31.01,31.01,6,1,6,0.00
2013-3-31,60.1,49.9,44.1,40.0,10.7,-0.8,66,24,12,31.01,31.01,10,2,10,0.00
2013-4-1,51.4,42.4,32.2,3.8,-2.9,-10.3,17,14,13,31.01,31.01,10,3,10,0.00
2013-4-2,54.1,35.5,19.4,4.4,-7.6,-18.1,19,15,13,31.01,31.01,9,2,9,0.00
2013-4-3,52.0,35.7,19.6,4.0,-7.5,-18.1,17,15,13,31.01,31.01,11,2,11,0.00
2013-4-4,60.4,42.8,30.9,7.5,-3.4,-11.3,15,14,12,31.01,31.01,6,2,6,0.00
2013-4-5,68.4,45.4,26.6,9.4,-1.9,-13.5,18,14,10,31.01,31.01,10,1,10,0.00
2013-4-6,70.5,52.1,34.7,10.7,1.3,-8.9,15,12,9,31.01,31.01,8,2,8,0.00
2013-4-7,77.7,64.7,57.7,11.6,7.9,5.5,12,11,8,31.01,31.01,13,3,13,0.00
2013-4-8,74.5,62.8,51.8,50.5,20.4,5.8,82,28,8,31.01,31.01,10,2,10,0.16
2013-4-9,86.5,68.7,51.6,33.0,14.7,6.7,42,15,6,31.01,31.01,14,3,14,0.00
2013-4-10,87.3,74.1,63.7,18.7,10.7,6.7,13,9,6,31.01,17.72,14,4,14,0.00
2013-4-11,68.2,63.9,60.8,57.6,36.4,8.2,84,45,11,17.72,17.72,11,2,11,0.94
2013-4-12,61.5,48.7,41.5,57.0,17.0,-1.6,85,37,13,17.72,17.72,10,4,10,0.16
2013-4-13,63.9,47.8,37.6,8.4,1.4,-6.4,24,15,11,17.72,17.72,11,3,11,0.00
2013-4-14,74.7,55.7,35.4,11.1,4.9,-7.5,30,14,8,17.72,17.72,6,1,6,0.00
2013-4-15,72.9,62.6,47.8,19.6,8.0,0.0,28,12,9,17.72,17.72,7,1,7,0.00
2013-4-16,89.1,66.7,58.1,56.5,23.5,6.9,83,30,5,17.72,17.72,9,2,9,0.24
2013-4-17,82.2,67.7,58.8,58.5,31.7,8.5,87,44,7,17.72,17.72,7,1,7,0.91
2013-4-18,88.7,74.2,64.0,19.8,11.5,8.5,13,9,5,17.72,17.72,12,3,12,0.00
2013-4-19,73.6,49.9,37.6,44.7,9.0,-7.5,82,24,8,17.72,17.72,13,5,13,0.55
2013-4-20,59.4,42.8,34.9,9.5,0.4,-8.9,32,17,12,17.72,17.72,11,3,11,0.00
2013-4-21,62.4,44.6,29.5,7.6,-2.3,-12.5,15,14,11,17.72,17.72,10,2,10,0.00
2013-4-25,62.4,49.3,36.7,7.6,0.7,-8.2,15,13,11,17.72,17.72,10,2,10,0.00
2013-4-26,68.0,49.5,29.1,19.1,4.8,-8.9,45,18,10,17.72,17.72,6,0,6,0.00
2013-4-27,72.9,56.4,38.7,10.7,4.8,-6.1,18,13,9,17.72,17.72,8,1,8,0.00
2013-4-28,74.8,60.5,56.1,49.3,29.0,5.1,64,34,8,17.72,17.72,10,1,10,0.12
2013-4-29,59.7,57.2,56.3,45.4,35.8,29.5,61,45,35,17.72,17.72,4,1,4,0.00
2013-10-25,50.2,50.1,49.8,2.8,2.7,2.5,14,14,14,0.00,0.00,3,2,3,0.00